This is the latest recevied weather packets stored in our database for station/object HA3YA-WX. If no packets are shown the sender has not sent any weather packets the latest 10 day(s).
| Time | Temp. | Humidity | Pressure | Rain* | Wind** | Luminosity | Snow |
|---|---|---|---|---|---|---|---|
| 1777807293 | 24.44° C | 42% | 1007 hPa | - | - | - | - |
| 1777806692 | 24.44° C | 42% | 1007 hPa | - | - | - | - |
| 1777806093 | 23.89° C | 41% | 1007.3 hPa | - | - | - | - |
| 1777805492 | 23.33° C | 42% | 1007 hPa | - | - | - | - |
| 1777804893 | 23.89° C | 41% | 1007 hPa | - | - | - | - |
| 1777803693 | 23.89° C | 43% | 1007 hPa | - | - | - | - |
| 1777803092 | 22.78° C | 44% | 1007 hPa | - | - | - | - |
| 1777802492 | 22.78° C | 45% | 1007.7 hPa | - | - | - | - |
| 1777801893 | 22.22° C | 45% | 1007 hPa | - | - | - | - |
| 1777801293 | 21.67° C | 46% | 1007 hPa | - | - | - | - |
| 1777800693 | 21.11° C | 47% | 1007 hPa | - | - | - | - |
| 1777800093 | 21.67° C | 47% | 1008.1 hPa | - | - | - | - |
| 1777799493 | 21.67° C | 47% | 1008.1 hPa | - | - | - | - |
| 1777798893 | 21.11° C | 48% | 1008.2 hPa | - | - | - | - |
| 1777798292 | 20.56° C | 49% | 1008.2 hPa | - | - | - | - |
| 1777797693 | 20° C | 50% | 1008.2 hPa | - | - | - | - |
| 1777797093 | 19.44° C | 49% | 1008.2 hPa | - | - | - | - |
| 1777796493 | 18.33° C | 51% | 1008.2 hPa | - | - | - | - |
| 1777795893 | 17.22° C | 51% | 1008 hPa | - | - | - | - |
| 1777795293 | 17.22° C | 51% | 1008 hPa | - | - | - | - |
| 1777794693 | 17.22° C | 50% | 1008 hPa | - | - | - | - |
| 1777794093 | 17.22° C | 49% | 1008 hPa | - | - | - | - |
| 1777793493 | 17.78° C | 48% | 1008.2 hPa | - | - | - | - |
| 1777792893 | 17.78° C | 49% | 1008 hPa | - | - | - | - |
| 1777792292 | 16.67° C | 50% | 1008 hPa | - | - | - | - |
* Rain since midnight (hover to see other rain measurements)
** Current wind speed in m/s (hover to see current wind gust speed)